Gold Coast Seaway Observation History
Time Wind Speed Temp Pressure Rel. Hum Rain
08/03:30am SW 4-5 kts 16.7°c 1013.3 hPa 91% 14.2mm
08/03:00am SW 4-5 kts 16.8°c 1013.4 hPa 91% 14.0mm
08/02:30am SSW 3-4 kts 16.8°c 1013.5 hPa 91% 14.0mm
08/02:00am SW 4-6 kts 16.6°c 1013.8 hPa 92% 13.6mm
08/01:30am SW 6-8 kts 16.5°c 1014.1 hPa 91% 12.8mm
08/01:00am SW 6-8 kts 16.5°c 1014.4 hPa 91% 12.0mm
08/12:30am SW 6-8 kts 16.5°c 1014.6 hPa 91% 11.2mm
08/12:00am WSW 4-6 kts 16.4°c 1014.9 hPa 91% 11.0mm
Time Wind Speed Temp Pressure Rel. Hum Rain
07/11:30pm SW 6-8 kts 16.2°c 1015.3 hPa 91% 11.0mm
07/11:00pm SW 5-7 kts 16.0°c 1015.4 hPa 90% 11.0mm
07/10:30pm SSW 6-8 kts 15.9°c 1015.9 hPa 90% 10.8mm
07/10:00pm SSW 7-10 kts 15.9°c 1015.9 hPa 89% 10.8mm
07/09:30pm S 7-12 kts 16.3°c 1016.2 hPa 89% 10.8mm
07/09:00pm SSE 10-13 kts 16.7°c 1016.0 hPa 89% 10.8mm
07/08:30pm SE 12-16 kts 16.8°c 1016.4 hPa 89% 10.8mm
07/08:00pm SE 12-14 kts 16.7°c 1016.7 hPa 89% 10.8mm
07/07:30pm SSE 12-15 kts 17.5°c 1016.5 hPa 89% 10.8mm
07/07:00pm SSE 7-10 kts 17.4°c 1016.4 hPa 88% 10.8mm
07/06:30pm SE 6-8 kts 17.2°c 1016.4 hPa 88% 10.8mm
07/06:00pm S 1-3 kts 17.0°c 1016.6 hPa 88% 10.8mm
07/05:30pm SW 3-5 kts 17.1°c 1016.4 hPa 89% 10.8mm
07/05:00pm CALM 0 kts 17.3°c 1016.1 hPa 88% 10.6mm
07/04:30pm SW 2-5 kts 17.4°c 1015.6 hPa 89% 9.8mm
07/04:00pm WSW 5-7 kts 17.4°c 1014.8 hPa 89% 8.8mm
07/03:30pm NW 5-8 kts 17.9°c 1014.4 hPa 86% 6.6mm
07/03:00pm NE 15-19 kts 17.6°c 1013.8 hPa 83% 5.8mm
07/02:30pm NE 21-27 kts 17.6°c 1014.8 hPa 84% 4.2mm
07/02:17pm NE 20-27 kts 18.5°c 1013.9 hPa 82% 2.2mm
07/02:00pm ENE 15-19 kts 20.1°c 1014.0 hPa 73% 0.0mm
07/01:30pm ENE 16-20 kts 20.6°c 1013.8 hPa 67% 0.0mm
07/01:00pm NE 17-22 kts 21.1°c 1013.7 hPa 64% 0.0mm
07/12:30pm NE 17-21 kts 22.0°c 1014.2 hPa 65% 0.0mm
07/12:00pm NE 14-17 kts 22.7°c 1015.6 hPa 65% 0.0mm
07/11:30am NE 13-18 kts 22.8°c 1016.6 hPa 63% 0.0mm
07/11:00am NNE 12-15 kts 23.0°c 1017.4 hPa 63% 0.0mm
07/10:30am NE 11-13 kts 21.7°c 1017.5 hPa 76% 0.0mm
07/10:00am ENE 13-17 kts 19.8°c 1018.2 hPa 81% 0.0mm
07/09:30am WNW 4-7 kts 19.4°c 1018.8 hPa 74% 0.0mm
07/09:00am ENE 11-14 kts 20.5°c 1018.9 hPa 75% 1.0mm
07/08:30am E 14-18 kts 19.4°c 1018.8 hPa 77% 1.0mm
07/08:00am E 16-23 kts 19.9°c 1018.8 hPa 75% 1.0mm
07/07:30am E 17-21 kts 19.5°c 1018.8 hPa 78% 1.0mm
07/07:00am ESE 14-19 kts 19.2°c 1018.6 hPa 81% 1.0mm
07/06:30am ESE 20-22 kts 18.9°c 1018.2 hPa 81% 0.8mm
07/06:00am SE 15-19 kts 18.0°c 1018.1 hPa 81% 0.6mm
07/05:30am SSE 13-19 kts 17.9°c 1017.9 hPa 80% 0.6mm
07/05:00am SSE 11-16 kts 17.4°c 1017.9 hPa 82% 0.6mm
07/04:30am SSE 13-17 kts 17.3°c 1017.8 hPa 82% 0.4mm
07/04:00am S 11-16 kts 18.2°c 1017.8 hPa 73% 0.0mm
07/03:30am SSE 12-17 kts 18.3°c 1017.6 hPa 72% 0.0mm
07/03:00am SSE 11-15 kts 18.4°c 1017.8 hPa 72% 0.0mm
07/02:30am SSE 11-16 kts 18.4°c 1017.9 hPa 71% 0.0mm
07/02:00am SSE 12-17 kts 18.4°c 1017.9 hPa 70% 0.0mm
07/01:30am S 10-15 kts 18.3°c 1018.3 hPa 72% 0.0mm
07/01:00am SSE 11-15 kts 18.2°c 1018.7 hPa 72% 0.0mm
07/12:30am SSE 11-14 kts 18.6°c 1018.8 hPa 71% 0.0mm
07/12:00am S 8-12 kts 18.3°c 1018.9 hPa 69% 0.0mm
Time Wind Speed Temp Pressure Rel. Hum Rain
06/11:30pm S 9-12 kts 18.3°c 1019.1 hPa 72% 0.0mm
06/11:00pm S 6-9 kts 17.1°c 1019.1 hPa 71% 0.0mm
06/10:30pm SSW 6-8 kts 16.5°c 1019.0 hPa 72% 0.0mm
06/10:00pm SSW 7-10 kts 16.8°c 1018.9 hPa 71% 0.0mm
06/09:30pm S 6-8 kts 16.4°c 1019.1 hPa 71% 0.0mm
06/09:00pm SSW 4-5 kts 16.4°c 1018.8 hPa 69% 0.0mm
06/08:30pm SSW 6-9 kts 16.2°c 1018.4 hPa 68% 0.0mm
06/08:00pm SSW 6-8 kts 16.5°c 1018.5 hPa 66% 0.0mm
06/07:30pm SSW 6-7 kts 17.0°c 1018.3 hPa 67% 0.0mm
06/07:00pm S 6-8 kts 17.4°c 1017.9 hPa 65% 0.0mm
06/06:30pm SE 9-10 kts 19.1°c 1017.6 hPa 68% 0.0mm
06/06:00pm SE 9-11 kts 19.0°c 1017.2 hPa 69% 0.0mm
06/05:30pm SE 10-12 kts 19.1°c 1017.0 hPa 66% 0.0mm
06/05:00pm SE 10-13 kts 19.3°c 1016.6 hPa 64% 0.0mm
06/04:30pm SE 10-12 kts 19.8°c 1016.5 hPa 60% 0.0mm
06/04:00pm SE 11-13 kts 20.2°c 1016.2 hPa 61% 0.0mm
06/03:30pm ESE 12-13 kts 20.5°c 1016.1 hPa 60% 0.0mm
06/03:00pm ESE 11-13 kts 21.0°c 1016.0 hPa 61% 0.0mm
06/02:30pm ESE 11-14 kts 21.3°c 1015.8 hPa 62% 0.0mm
06/02:00pm ESE 10-12 kts 22.2°c 1015.8 hPa 61% 0.0mm
06/01:30pm E 9-11 kts 22.4°c 1015.8 hPa 48% 0.0mm
06/01:00pm ENE 9-11 kts 22.5°c 1015.7 hPa 54% 0.0mm
06/12:30pm ENE 8-9 kts 22.4°c 1016.2 hPa 54% 0.0mm
06/12:00pm NE 7-9 kts 21.9°c 1016.6 hPa 57% 0.0mm
06/11:30am NNE 7-9 kts 22.7°c 1017.1 hPa 49% 0.0mm
06/11:00am NE 5-7 kts 21.5°c 1017.4 hPa 48% 0.0mm
06/10:30am E 3-4 kts 21.8°c 1017.8 hPa 43% 0.0mm
06/10:00am E 1-4 kts 22.0°c 1017.9 hPa 42% 0.0mm
06/09:30am SW 4-6 kts 20.1°c 1018.1 hPa 39% 0.0mm
06/09:00am WSW 3-5 kts 18.8°c 1018.1 hPa 48% 0.0mm
06/08:30am W 5-6 kts 16.7°c 1017.9 hPa 54% 0.0mm
06/08:00am W 5-6 kts 14.7°c 1017.7 hPa 60% 0.0mm
06/07:30am W 6-7 kts 12.9°c 1017.3 hPa 67% 0.0mm
06/07:00am WNW 6-7 kts 12.1°c 1016.9 hPa 69% 0.0mm
06/06:30am W 5-7 kts 11.7°c 1016.6 hPa 72% 0.0mm
06/06:00am W 5-6 kts 11.7°c 1016.2 hPa 71% 0.0mm
06/05:30am WSW 5-7 kts 11.4°c 1015.9 hPa 74% 0.0mm
06/05:00am W 5-6 kts 11.0°c 1015.4 hPa 84% 0.0mm
06/04:30am CALM 0-3 kts 10.2°c 1015.2 hPa 82% 0.0mm
06/04:00am WNW 3-5 kts 10.4°c 1015.1 hPa 76% 0.0mm
06/03:30am SW 5-6 kts 11.5°c 1014.7 hPa 72% 0.0mm
06/03:00am W 6-7 kts 12.8°c 1014.8 hPa 71% 0.0mm
06/02:30am WNW 4-5 kts 12.9°c 1014.9 hPa 72% 0.0mm
06/02:00am WNW 6-9 kts 14.6°c 1014.9 hPa 73% 0.0mm
06/01:30am W 5-6 kts 13.3°c 1014.9 hPa 68% 0.0mm
06/01:00am W 5-6 kts 13.8°c 1015.0 hPa 67% 0.0mm
06/12:30am SW 4-5 kts 12.7°c 1015.3 hPa 69% 0.0mm
06/12:00am SW 6-7 kts 14.0°c 1015.2 hPa 66% 0.0mm